User: anonymous   Login
Location: Unspecified
(0.0000°N, 0.0000°E)
Time: 17:01:15
(UTC+00:00)
Language:

UNK - Orbit

View from above orbital plane
View from above orbital plane
View from above satellite
View from above satellite

Ground track
Ground track

The orbit data is extracted from the following two-line orbital elements,

1 27945U 03042G   18175.23183752  .00000018  00000-0  12163-4 0  9995
2 27945  97.9963 310.3728 0012956 145.9139 214.2899 14.64795903787512
Epoch (UTC): 24 June 2018 05:33:50
Eccentricity: 0.0012956
inclination: 97.9963°
perigee height: 668 km
apogee height: 687 km
right ascension of ascending node: 310.3728°
argument of perigee: 145.9139°
revolutions per day: 14.64795903
mean anomaly at epoch: 214.2899°
orbit number at epoch: 78751

The dashed part of the orbit path shows where the satellite is in the earth's shadow,  

DLR